Granite Falls, MN

3:04 PM CST on February 10, 2016 (GMT -0600)
Granite Falls

Weather History for KGDB - October, 2013

Change the Weather History Date:

Friday, October 4, 2013

  Actual Average (KMVE) Record (KMVE)
Temperature  
Mean Temperature 54 °F -  
Max Temperature 56 °F 66 °F 87 °F (1975)
Min Temperature 52 °F 40 °F 24 °F (1968)
Degree Days  
Heating Degree Days 11    
Growing Degree Days 4 (Base 50)    
Moisture  
Dew Point 52 °F    
Average Humidity 93    
Maximum Humidity 95    
Minimum Humidity 91    
Precipitation  
Precipitation 0.07 in - - ()
Sea Level Pressure  
Sea Level Pressure 29.91 in    
Wind  
Wind Speed 12 mph (NE)    
Max Wind Speed 22 mph    
Max Gust Speed 32 mph    
Visibility 8 miles    
Events Rain , Thunderstorm    
Averages and records for this station are not official NWS values.
T = Trace of Precipitation, MM = Missing Value Source: NWS Daily Summary

Daily Weather History Graph

Daily Weather History Graph

Search for Another Location

Airport or City:

Trip Planner

Search our weather history database for the weather conditions in past years. The results will help you decide how hot, cold, wet, or windy it might be!

Date:

Astronomy

Oct. 04, 2013 Rise Set
Actual Time 7:24 AM CDT 6:56 PM CDT
Civil Twilight 6:55 AM CDT 7:25 PM CDT
Nautical Twilight 6:21 AM CDT 7:59 PM CDT
Astronomical Twilight 5:46 AM CDT 8:33 PM CDT
Moon 7:01 AM CDT (10/4) 6:38 PM CDT (10/4)
Length of Visible Light 12h 30m
Length of Day
11h 32m
Waning Crescent, 0% of the Moon is Illuminated
Oct 4
Waning Crescent
Oct 4
New
Oct 11
First Quarter
Oct 18
Full
Oct 26
Last Quarter

Hourly Weather History & Observations

Time (CDT) Temp. Dew Point Humidity Pressure Visibility Wind Dir Wind Speed Gust Speed Precip Events Conditions
12:13 AM 53.2 °F 51.8 °F 95% 29.96 in 10.0 mi North 10.4 mph - N/A   Overcast
12:33 AM 53.1 °F 51.8 °F 95% 29.95 in 10.0 mi North 11.5 mph 16.1 mph N/A   Overcast
12:52 AM 53.1 °F 51.6 °F 95% 29.95 in 10.0 mi North 9.2 mph - N/A   Overcast
1:13 AM 52.7 °F 50.9 °F 94% 29.95 in 10.0 mi NNE 11.5 mph - N/A   Overcast
1:33 AM 52.7 °F 50.5 °F 92% 29.96 in 10.0 mi NNE 10.4 mph 16.1 mph N/A   Overcast
1:53 AM 52.7 °F 50.4 °F 92% 29.99 in 10.0 mi NE 10.4 mph 16.1 mph N/A   Overcast
2:12 AM 52.3 °F 50.0 °F 92% 29.98 in 10.0 mi NNE 11.5 mph - N/A   Overcast
2:33 AM 52.3 °F 50.2 °F 92% 29.97 in 10.0 mi NNE 12.7 mph 18.4 mph N/A   Overcast
2:52 AM 52.3 °F 50.0 °F 92% 29.97 in 10.0 mi NE 10.4 mph - N/A   Overcast
3:13 AM 52.3 °F 50.0 °F 92% 29.95 in 10.0 mi NNE 11.5 mph - N/A   Overcast
3:33 AM 52.3 °F 50.0 °F 92% 29.95 in 10.0 mi NNE 10.4 mph 16.1 mph N/A   Overcast
3:53 AM 52.3 °F 50.0 °F 92% 29.95 in 10.0 mi NNE 9.2 mph - N/A   Overcast
4:13 AM 52.3 °F 50.0 °F 92% 29.95 in 10.0 mi NE 9.2 mph - N/A   Overcast
4:33 AM 52.3 °F 50.0 °F 92% 29.97 in 10.0 mi ENE 8.1 mph - N/A   Overcast
4:53 AM 52.3 °F 50.0 °F 92% 29.97 in 10.0 mi NE 8.1 mph - N/A   Overcast
5:13 AM 52.3 °F 50.2 °F 92% 29.96 in 10.0 mi NE 4.6 mph - N/A   Overcast
5:33 AM 52.3 °F 50.4 °F 93% 29.96 in 10.0 mi NNE 5.8 mph - N/A   Overcast
5:53 AM 52.3 °F 50.4 °F 93% 29.97 in 10.0 mi NE 8.1 mph - N/A   Overcast
6:13 AM 52.3 °F 50.4 °F 93% 29.96 in 10.0 mi NNE 9.2 mph - N/A   Overcast
6:32 AM 52.3 °F 50.4 °F 93% 29.97 in 10.0 mi NE 5.8 mph - N/A   Overcast
6:53 AM 52.7 °F 50.7 °F 93% 29.97 in 10.0 mi ENE 8.1 mph - N/A   Overcast
7:12 AM 52.7 °F 50.9 °F 94% 29.98 in 10.0 mi NE 6.9 mph - N/A   Overcast
7:33 AM 52.7 °F 50.9 °F 94% 29.98 in 10.0 mi NE 5.8 mph - N/A   Overcast
7:53 AM 52.7 °F 50.9 °F 94% 29.97 in 10.0 mi NNE 11.5 mph - N/A   Overcast
8:13 AM 52.7 °F 50.9 °F 94% 29.97 in 10.0 mi NNE 10.4 mph - N/A   Overcast
8:33 AM 52.7 °F 50.9 °F 94% 29.96 in 7.0 mi NNE 13.8 mph 19.6 mph N/A   Overcast
8:51 AM 52.9 °F 51.1 °F 94% 29.97 in 7.0 mi NNE 10.4 mph 17.3 mph N/A   Overcast
9:13 AM 52.9 °F 51.1 °F 94% 29.95 in 5.0 mi NNE 12.7 mph 18.4 mph N/A   Overcast
9:33 AM 53.1 °F 51.4 °F 94% 29.97 in 7.0 mi NE 11.5 mph 17.3 mph N/A   Overcast
9:53 AM 53.2 °F 51.4 °F 94% 29.95 in 7.0 mi NE 12.7 mph 19.6 mph N/A   Overcast
10:13 AM 53.2 °F 51.4 °F 94% 29.97 in 7.0 mi NNE 12.7 mph 16.1 mph N/A   Overcast
10:33 AM 53.4 °F 51.6 °F 94% 29.96 in 7.0 mi NNE 12.7 mph 16.1 mph N/A   Overcast
10:53 AM 53.4 °F 51.4 °F 93% 29.96 in 7.0 mi NE 15.0 mph 20.7 mph N/A   Overcast
11:13 AM 53.8 °F 51.8 °F 93% 29.98 in 4.0 mi NE 11.5 mph 16.1 mph N/A   Overcast
11:33 AM 54.0 °F 51.8 °F 92% 29.98 in 4.0 mi NE 15.0 mph 18.4 mph N/A   Overcast
11:52 AM 54.1 °F 52.0 °F 92% 29.97 in 7.0 mi NNE 15.0 mph 20.7 mph N/A   Overcast
12:13 PM 54.0 °F 51.8 °F 92% 29.97 in 5.0 mi NE 13.8 mph 21.9 mph N/A   Overcast
12:33 PM 54.0 °F 51.8 °F 92% 29.97 in 7.0 mi NE 10.4 mph 17.3 mph N/A   Overcast
12:53 PM 54.1 °F 51.8 °F 92% 29.94 in 10.0 mi NE 18.4 mph 21.9 mph N/A   Overcast
1:13 PM 54.1 °F 51.8 °F 92% 29.93 in 7.0 mi NE 17.3 mph 23.0 mph N/A   Overcast
1:33 PM 54.1 °F 51.8 °F 92% 29.93 in 5.0 mi NE 17.3 mph 24.2 mph N/A   Overcast
1:53 PM 54.1 °F 51.8 °F 92% 29.94 in 2.5 mi NE 13.8 mph 19.6 mph N/A Rain Light Rain
2:13 PM 54.1 °F 52.0 °F 92% 29.92 in 3.0 mi NE 11.5 mph - N/A   Light Drizzle
2:33 PM 54.5 °F 52.3 °F 92% 29.88 in 3.0 mi NE 15.0 mph - N/A   Overcast
2:53 PM 54.5 °F 52.3 °F 92% 29.89 in 5.0 mi ENE 13.8 mph 21.9 mph N/A   Overcast
3:13 PM 54.7 °F 52.5 °F 92% 29.89 in 7.0 mi ENE 12.7 mph 19.6 mph N/A   Overcast
3:33 PM 55.0 °F 52.7 °F 92% 29.89 in 10.0 mi ENE 13.8 mph 19.6 mph N/A   Overcast
3:53 PM 55.0 °F 52.7 °F 92% 29.89 in 7.0 mi ENE 11.5 mph 19.6 mph N/A   Overcast
4:13 PM 55.0 °F 52.7 °F 92% 29.89 in 5.0 mi ENE 13.8 mph 20.7 mph N/A   Overcast
4:33 PM 55.4 °F 52.9 °F 91% 29.89 in 5.0 mi ENE 9.2 mph - N/A   Overcast
4:53 PM 55.6 °F 53.2 °F 92% 29.89 in 4.0 mi ENE 11.5 mph 21.9 mph N/A   Overcast
5:12 PM 55.8 °F 53.6 °F 92% 29.89 in 4.0 mi ENE 10.4 mph 16.1 mph N/A   Overcast
5:33 PM 55.8 °F 53.6 °F 92% 29.89 in 2.0 mi ENE 9.2 mph - N/A   Overcast
5:53 PM 55.6 °F 53.8 °F 94% 29.87 in 3.0 mi ENE 15.0 mph - N/A   Overcast
6:13 PM 55.8 °F 53.6 °F 92% 29.84 in 7.0 mi NE 20.7 mph 26.5 mph N/A Rain , Thunderstorm Light Thunderstorms and Rain
6:31 PM 55.6 °F 53.6 °F 93% 29.83 in 4.0 mi ENE 21.9 mph 27.6 mph 0.05 in Rain , Thunderstorm Rain
6:53 PM 55.4 °F 53.2 °F 92% 29.83 in 10.0 mi ENE 17.3 mph 25.3 mph 0.05 in   Light Drizzle
7:13 PM 55.6 °F 53.4 °F 92% 29.82 in 5.0 mi ENE 16.1 mph 26.5 mph 0.01 in Rain Rain
7:33 PM 55.4 °F 53.2 °F 92% 29.82 in 5.0 mi NE 16.1 mph 25.3 mph 0.01 in   Overcast
7:52 PM 55.4 °F 53.4 °F 93% 29.81 in 7.0 mi ENE 19.6 mph 28.8 mph 0.01 in   Overcast
8:13 PM 55.6 °F 53.4 °F 92% 29.82 in 7.0 mi ENE 20.7 mph 27.6 mph N/A   Overcast
8:33 PM 55.8 °F 53.4 °F 92% 29.81 in 10.0 mi ENE 21.9 mph 32.2 mph N/A   Overcast
8:53 PM 55.8 °F 53.1 °F 91% 29.79 in 10.0 mi ENE 19.6 mph 27.6 mph N/A   Overcast
9:13 PM 55.8 °F 53.2 °F 91% 29.79 in 10.0 mi ENE 18.4 mph 27.6 mph N/A   Overcast
9:32 PM 55.9 °F 53.2 °F 91% 29.77 in 10.0 mi ENE 17.3 mph 27.6 mph N/A   Overcast
9:53 PM 56.3 °F 53.6 °F 91% 29.79 in 10.0 mi ENE 17.3 mph 27.6 mph N/A   Overcast
10:12 PM 56.3 °F 53.6 °F 91% 29.78 in 7.0 mi ENE 15.0 mph 25.3 mph N/A Rain Light Rain
10:33 PM 55.9 °F 53.6 °F 92% 29.77 in 10.0 mi ENE 12.7 mph 20.7 mph 0.01 in   Drizzle
10:53 PM 56.3 °F 54.0 °F 92% 29.77 in 10.0 mi East 13.8 mph 24.2 mph 0.01 in   Overcast
11:13 PM 56.5 °F 54.1 °F 92% 29.78 in 10.0 mi ENE 12.7 mph 25.3 mph N/A   Overcast
11:33 PM 56.5 °F 54.1 °F 92% 29.77 in 10.0 mi East 11.5 mph 26.5 mph N/A   Overcast
11:53 PM 56.7 °F 54.5 °F 92% 29.77 in 10.0 mi ENE 11.5 mph 20.7 mph N/A   Overcast